Flag for Cyprus Weather past 2 weeks in Larnaca, Cyprus

Now
72 °F

Clear.


Feels Like: 74 °F
Forecast: 68 / 84 °F
Wind: 6 mph from Northwest

Location: Larnaca Airport

Current Time: Sep 20, 2014 at 1:39:28 AM

Latest Report: Sep 20, 2014 at 1:00 AM


Visibility: 10 mi

Pressure: 29.92 "Hg

Humidity: 73%

Dew point: 63 °F

Location of LarnacaLocation

Historic Weather in Larnaca — Graph

°F

Larnaca temperature yesterday

Maximum temperature yesterday: 86 °F (at 12:00 PM)
Minimum temperature yesterday: 66 °F (at 6:00 AM)
Average temperature yesterday: 78 °F

Past Weeks' High & Low Weather Summary

 TemperatureHumidityPressure
High90 °F (Sep 5, 2:00 PM)89% (Sep 5, 3:00 AM)29.92 "Hg (Sep 5, 3:00 AM)
Low66 °F (Sep 18, 6:30 AM)38% (Sep 15, 1:00 PM)29.65 "Hg (Sep 5, 6:00 PM)
Average80 °F64%29.81 "Hg
* Reported Midnight between Sep 4 and Sep 5 — Sep 20 12:30 AM, Larnaca, Weather by CustomWeather, © 2014

Note: Actual official high and low records may vary slightly from our data, if they occured in-between our weather recording intervals... More about our weather records

Advertising

Larnaca weather history for previous 24 hours

 ConditionsComfort  
Time TempWeatherWind HumidityBarometerVisibility
12:30 AM
Sep 20
72 °FClear.6 mph73%29.92 "Hg10 mi
12:00 AM72 °FClear.6 mph69%29.92 "Hg10 mi
11:30 PM
Sep 19
73 °FClear.6 mph69%29.92 "Hg10 mi
11:00 PM73 °FClear.6 mph69%29.92 "Hg10 mi
10:30 PM75 °FClear.5 mph69%29.92 "Hg10 mi
10:00 PM75 °FClear.3 mph69%29.92 "Hg10 mi
9:30 PM77 °FPassing clouds.5 mph69%29.92 "HgN/A
9:00 PM77 °FPassing clouds.6 mph65%29.92 "HgN/A
8:30 PM79 °FPassing clouds.7 mph61%29.92 "HgN/A
8:00 PM79 °FPassing clouds.5 mph61%29.92 "HgN/A
7:30 PM81 °FBroken clouds.3 mph58%29.89 "HgN/A
7:00 PM81 °FScattered showers. Broken clouds.5 mph58%29.89 "HgN/A
6:30 PM81 °FBroken clouds.8 mph58%29.89 "HgN/A
6:00 PM81 °FSprinkles. Broken clouds.15 mph66%29.89 "HgN/A
5:30 PM81 °FScattered clouds.18 mph66%29.86 "HgN/A
5:00 PM82 °FScattered clouds.21 mph58%29.86 "HgN/A
4:30 PM84 °FPassing clouds.21 mph55%29.86 "HgN/A
4:00 PM84 °FPassing clouds.21 mph55%29.86 "HgN/A
3:30 PM84 °FPassing clouds.22 mph55%29.86 "HgN/A
3:00 PM84 °FPassing clouds.20 mph55%29.86 "HgN/A
2:30 PM86 °FPassing clouds.18 mph49%29.89 "HgN/A
2:00 PM86 °FPassing clouds.18 mph49%29.89 "HgN/A
1:30 PM86 °FPassing clouds.17 mph49%29.89 "HgN/A
1:00 PM84 °FPassing clouds.17 mph48%29.92 "HgN/A
12:30 PM86 °FPassing clouds.16 mph46%29.92 "HgN/A
12:00 PM86 °FPassing clouds.17 mph49%29.92 "HgN/A
11:30 AM84 °FPassing clouds.16 mph45%29.92 "HgN/A
11:00 AM84 °FPassing clouds.17 mph48%29.92 "HgN/A
10:30 AM84 °FPassing clouds.14 mph51%29.92 "HgN/A
10:00 AM82 °FPassing clouds.13 mph55%29.92 "HgN/A
9:30 AM81 °FPassing clouds.10 mph54%29.92 "HgN/A
9:00 AM81 °FPassing clouds.9 mph54%29.92 "HgN/A
8:30 AM77 °FPassing clouds.7 mph65%29.92 "HgN/A
8:00 AM73 °FPassing clouds.3 mph69%29.92 "HgN/A
7:30 AM70 °FPassing clouds.5 mph78%29.92 "HgN/A
7:00 AM68 °FPassing clouds.5 mph83%29.92 "HgN/A
6:30 AM66 °FPassing clouds.3 mph88%29.89 "HgN/A
6:00 AM66 °FPassing clouds.3 mph83%29.89 "HgN/A
5:30 AM68 °FPassing clouds.2 mph83%29.89 "HgN/A
5:00 AM68 °FPassing clouds.3 mph78%29.89 "HgN/A
4:30 AM70 °FPassing clouds.3 mph78%29.89 "HgN/A
4:00 AM72 °FPassing clouds.3 mph73%29.89 "HgN/A
3:30 AM72 °FPassing clouds.No wind73%29.89 "HgN/A
3:00 AM72 °FPassing clouds.2 mph78%29.89 "HgN/A
2:30 AM73 °FPassing clouds.2 mph69%29.89 "HgN/A
2:00 AM73 °FPassing clouds.1 mph69%29.89 "HgN/A
1:30 AM73 °FPassing clouds.1 mph65%29.92 "HgN/A
1:00 AM73 °FPassing clouds.1 mph65%29.92 "HgN/A
Weather by CustomWeather, © 2014

See weather overviewHow to use our weather pages